Location: Haliburton Scout Reserve
(45.0900°N, 78.3200°W)
Time: 11:10:09
(UTC-05:00)

N. Korean satellite - Pass Details

Date: 01 December 2021
Orbit: 447 x 491 km, 97.3° (Epoch: 23 January)

Event Time Altitude Azimuth Distance (km) Brightness Sun altitude
Rises 05:58:36 0° 5° (N) 2,475 10.1 -15.9°
Reaches altitude 10° 06:00:44 10° 358° (N) 1,592 9.0 -15.6°
Maximum altitude 06:03:56 39° 288° (WNW) 684 6.8 -15.0°
Drops below altitude 10° 06:07:05 10° 217° (SW) 1,570 8.9 -14.5°
Sets 06:09:10 0° 210° (SSW) 2,436 10.0 -14.2°
